Regional Weather Roundup
Issued by NWS

Home | Current Version | Previous Version | Text Only | Print | Product List | Glossary On
Versions: 1 2 3 4 5 6 7 8 9 10 11 12 13 14 15 16 17 18 19 20 21 22 23 24 25 26 27 28 29 30 31 32 33 34 35 36 37 38 39 40 41 42 43 44 45 46 47 48 49 50
000
ASUS44 KFWD 021915
RWRTX
NORTH TEXAS HOURLY WEATHER ROUNDUP
NATIONAL WEATHER SERVICE FORT WORTH TX
200 PM CDT WED SEP 02 2015

NOTE: "FAIR" INDICATES FEW OR NO CLOUDS BELOW 12,000 FEET WITH NO
SIGNIFICANT WEATHER AND/OR OBSTRUCTIONS TO VISIBILITY.

TXZ118-119-022000-
DALLAS/FORT WORTH METROPLEX

CITY           SKY/WX    TMP DP  RH WIND       PRES   REMARKS
DFW AIRPORT    MOSUNNY   91  64  40 CALM      30.02F HX  92
DALLAS LOVE    MOSUNNY   92  64  39 SE13G18   30.02F HX  93
FTW MEACHAM    MOSUNNY   92  64  39 SE9       30.02F HX  93
DAL-EXECUTIVE  MOSUNNY   90  62  39 SE8G16    30.02F HX  90
FTW-ALLIANCE   MOSUNNY   93  62  35 SE12G20   30.02F HX  93
FTW-NAS-JRB    MOSUNNY   92  63  38 VRB6      30.02F HX  93
FTW-SPINKS     MOSUNNY   91  64  40 S8        30.04F HX  93
ARLINGTON      SUNNY     91  62  37 SE12      30.02F HX  91
GRAND PRAIRIE  SUNNY     90  66  45 S9        30.04F HX  92
ADDISON        MOSUNNY   90  63  40 SE7G15    30.03  HX  90
MESQUITE       SUNNY     90  63  40 S6        30.03F HX  90
LANCASTER      SUNNY     91  62  37 SE7       30.03F HX  91
$$

TXZ091>094-102>105-117-120-121-131>134-022000-
NORTH CENTRAL TEXAS

CITY           SKY/WX    TMP DP  RH WIND       PRES   REMARKS
SHRMAN/DENISON SUNNY     92  64  38 S8        30.03F HX  93
GAINESVILLE    SUNNY     90  61  37 SE9G20    30.05S HX  90
BOWIE          SUNNY     91  59  33 SE9       30.02F HX  90
BRIDGEPORT     SUNNY     92  62  36 S12       30.03F HX  93
DECATUR        SUNNY     90  59  35 SE10G16   30.03F
DENTON         SUNNY     91  62  37 S10       30.02F HX  91
MCKINNEY       SUNNY     90  63  40 SE12G20   30.03F HX  91
GREENVILLE     SUNNY     90  59  35 SE9       30.04F
ROCKWALL       MOSUNNY   90  65  44 SE3       30.03F HX  92
TERRELL        SUNNY     91  64  40 S12       30.04F HX  92
WAXAHACHIE     SUNNY     90  66  44 SE9       30.04F HX  92
CLEBURNE         N/A     90  66  45 VRB6G14   30.04F HX  92
GRANBURY       SUNNY     91  62  37 SE8G21    30.02F HX  91
$$

TXZ083>090-098>101-113>116-127>130-139>142-154-155-022000-
WESTERN NORTH TEXAS

CITY           SKY/WX    TMP DP  RH WIND       PRES   REMARKS
WICHITA FALLS  MOSUNNY   93  64  38 SE10      29.99F HX  94
WF-KICKAPOO    SUNNY     94  61  33 SE3G16    30.00F HX  94
VERNON         SUNNY     94  52  23 SW9       29.99F HX  92
ABILENE        MOSUNNY   91  61  36 MISG      30.03F HX  91
ABILENE-DYESS  SUNNY     92  64  38 SE10      30.02F HX  93
BRECKENRIDGE   MOSUNNY   94  59  31 SE10      30.01F HAZE    HX  93
GRAHAM         MOSUNNY   93  64  37 E6        29.99F HX  94
MINERAL WELLS  SUNNY     91  63  39 SE14      30.01F HX  92
STEPHENVILLE   SUNNY     88  63  42 S6        30.07F
COMANCHE       SUNNY     92  61  34 S5        30.04F HX  92
BROWNWOOD      SUNNY     90  61  37 S8        30.03F
COLEMAN        MOSUNNY   90  63  40 NE3       30.04F HX  90
BRADY          MOSUNNY   93  61  33 E6        30.04F HX  93
$$

TXZ143>147-156>162-174-175-022000-
CENTRAL TEXAS

CITY           SKY/WX    TMP DP  RH WIND       PRES   REMARKS
WACO           MOSUNNY   90  66  45 S8        30.02F HX  92
WACO-TSTC      MOSUNNY   90  66  45 SE6       30.03F HX  92
WACO-MCGREGOR  MOSUNNY   88  67  49 VRB6      30.03F HX  91
HILLSBORO      MOSUNNY   89  65  44 SE8       30.03F HX  90
CORSICANA      MOSUNNY   90  65  43 S9        30.04F HX  92
MEXIA          PTSUNNY   88  65  46 SE16G26   30.03F
HEARNE         PTSUNNY   92  68  45 SE8       30.02F HX  95
CAMERON        PTSUNNY   89  67  47 CALM      30.01F HX  92
TEMPLE         MOSUNNY   90  66  45 SE6       30.03F HX  92
KILLEEN        SUNNY     89  64  43 VRB7      30.02F HX  90
KILLEEN-SKYLRK MOSUNNY   88  66  48 E8        30.02F HX  90
FORT HOOD      MOSUNNY   88  66  47 SE9       30.02F HX  90
GATESVILLE     SUNNY     88  63  42 SE8       30.05F
HAMILTON       SUNNY     91  59  34 SE6       30.05F HX  90
$$

TXZ095>097-106>112-122>126-135>138-148>153-164>167-022000-
EAST TEXAS

CITY           SKY/WX    TMP DP  RH WIND       PRES   REMARKS
PARIS          MOSUNNY   90  63  40 S8        30.05F HX  90
SULPHUR SPRNGS MOSUNNY   89  63  41 S9        30.07S HX  90
MOUNT PLEASANT MOSUNNY   88  62  42 CALM      30.06F
GILMER         PTSUNNY   87  68  53 CALM      30.05F HX  91
MINEOLA        SUNNY     90  63  40 S6        30.06S HX  90
TYLER          MOSUNNY   90  64  42 E7        30.05F HX  91
LONGVIEW       MOSUNNY   89  65  44 SW5       30.04F HX  91
MARSHALL       SUNNY     89  70  54 CALM      30.07F HX  94
ATHENS         MOSUNNY   86  64  48 S3        30.03F
PALESTINE      MOSUNNY   90  66  43 SE6       30.05F HX  92
JACKSONVILLE   PTSUNNY   89  63  41 NE6       30.07F HX  90
HENDERSON      MOSUNNY   89  67  48 E7        30.06F HX  91
CENTER         FAIR      91  63  38 S9G16     30.03F HX  92
NACOGDOCHES    MOSUNNY   91  61  35 S8        30.02F HX  91
LUFKIN         MOSUNNY   90  61  37 SE7G17    30.02F HX  90
$$

SUPPLEMENTAL OBSERVATIONS (CENTRAL)

CITY           SKY/WX    TMP DP  RH WIND       PRES   REMARKS
LAKE TEXOMA      N/A     90  61  37 S3          N/A
CADDO GRASSLND   N/A     91  63  38 S9          N/A  HX  92
PAT MAYSE LAKE   N/A     88  63  42 SE6         N/A
GREENVILLE       N/A     91  63  38 SE7G16      N/A  HX  92
CEDAR HILL       N/A     93  61  33 SE7G15      N/A  HX  93
LAKE LIMESTONE   N/A     90  64  43 E8          N/A  HX  91
MCGREGOR         N/A     91  64  40 SE9         N/A  HX  93
$$

SUPPLEMENTAL OBSERVATIONS (WEST)

CITY           SKY/WX    TMP DP  RH WIND       PRES   REMARKS
MILLERS CREEK    N/A     97  63  32 S8          N/A  HX  98
LBJ GRASSLAND    N/A     91  63  38 S9          N/A  HX  92
COMANCHE         N/A     91  59  33 SE10G18     N/A  HX  90
HAMBY            N/A    N/A N/A N/A S7G17       N/A
IVIE RESERVOIR   N/A    N/A N/A N/A E8G16       N/A
COLORADO BEND    N/A     91  59  33 S6          N/A  HX  90
$$

SUPPLEMENTAL OBSERVATIONS (EAST)

CITY           SKY/WX    TMP DP  RH WIND       PRES   REMARKS
TEXARKANA        N/A     91  70  49 SW3         N/A  HX  97
LINDEN           N/A     91  64  40 E5          N/A  HX  93
CADDO LAKE       N/A     88  70  55 NE3         N/A  HX  92
LUFKIN           N/A     90  63  40 MISG        N/A  HX  90
N SABINE NF      N/A     99  63  30 MISG        N/A  HX 100
$$

SUPPLEMENTAL OBSERVATIONS ARE A COLLECTION OF AUTOMATED INSTRUMENTS
THAT ARE MAINTAINED BY A VARIETY OF FEDERAL AND STATE AGENCIES.
CERTAIN ELEMENTS...SUCH AS HUMIDITY VALUES AND SUSTAINED WIND
SPEEDS...MAY BE APPROXIMATED.



USA.gov is the U.S. government's official web portal to all federal, state and local government web resources and services.